Volver al catálogo

GLOBALSTAR M086

ActivoComunicacionesLEO
NORAD 38045·PAYLOAD·🇺🇸 United States

Lanzado Dec 28, 2011 desde Baikonur Cosmodrome

Loading…

Próximos Pases (próximas 24 horas)

TLE

ActualizadoSource: Space-Track

Época: Sep 14, 2026, 10:53 UTC

1 38045U 11080F   26257.45363696 -.00000112  00000-0 -44225-4 0  9991
2 38045  51.9898  56.5467 0000592 212.2947 165.9360 12.62289065680935

Sigue GLOBALSTAR M086 en tiempo real con AllMySat

Download on the App Store